[[{"header":{"parameterUnit":"m.s-1","parameterCategory":1,"la1":30.2991,"la2":30.254,"lo1":-89.0895,"lo2":-89.0444,"dy":0.0017,"dx":0.0017,"nx":28,"ny":28,"refTime":"2023-08-08T03:00:00:Z","depth":0,"parameterNumber":2,"parameterNumberName":"U-component_of_WINDS"},"data":[0,0,0,0,0,0,0,0,0,0,0,0,0,0,0,0,0,0,0,0,0,0,0,0,0,0,0,0,0,0,0,0,0,0,0,0,0,0,0,0,0,0,0,0,0,0,0,0,0,0,0,0,0,0,0,0,0,0,-0.5744,-0.5744,0,-0.5762,-0.5762,-0.5762,-0.5807,-0.5808,-0.5809,-0.581,-0.583,-0.5829,-0.5829,0,0,0,0,0,0,0,0,0,0,0,0,0,-0.5752,-0.5752,-0.5744,-0.5744,-0.5744,-0.5762,-0.5762,-0.5762,-0.5807,-0.5808,-0.581,-0.5811,-0.583,-0.5829,-0.5829,0,0,0,0,0,0,0,0,0,0,0,0,0,-0.5757,-0.5751,-0.5744,-0.5769,-0.5771,-0.5762,-0.5762,-0.5763,-0.5807,-0.5808,-0.581,-0.5811,-0.583,-0.5829,-0.5829,-0.5797,0,0,-0.5827,-0.5827,0,0,0,0,0,0,0,0,-0.5757,-0.5757,-0.5765,-0.5767,-0.577,-0.5784,-0.5772,-0.5774,-0.5807,-0.5793,-0.581,-0.5812,-0.5813,-0.5814,-0.5814,-0.5798,-0.5799,-0.5827,-0.5827,-0.5826,-0.5826,0,0,0,0,0,0,0,-0.5756,-0.5756,-0.5751,-0.5765,-0.5768,-0.578,-0.5783,-0.5773,-0.5795,-0.5795,-0.5798,-0.58,-0.5815,-0.5815,-0.5815,-0.5799,-0.5827,-0.5826,-0.5826,-0.5826,-0.576,-0.5759,0,0,0,0,0,0,-0.5752,-0.5756,-0.5751,-0.5752,-0.5767,-0.5779,-0.5782,-0.5778,-0.5795,-0.5799,-0.5798,-0.5802,-0.5815,-0.5816,-0.5816,-0.5781,-0.5826,-0.5826,-0.5826,-0.5761,-0.576,-0.5758,0,0,0,0,0,0,-0.5752,-0.5751,-0.575,-0.5755,-0.5755,-0.5777,-0.5773,-0.5778,-0.5778,-0.5798,-0.5803,-0.5794,-0.5816,-0.5817,-0.5802,-0.5782,-0.5826,-0.5825,-0.5763,-0.5761,-0.5759,-0.571,0,0,0,0,0,0,-0.5752,-0.5751,-0.5738,-0.5754,-0.5755,-0.5734,-0.5772,-0.5777,-0.5776,-0.5781,-0.5795,-0.5799,-0.5817,-0.5802,-0.5801,-0.5782,-0.5825,-0.5765,-0.5762,-0.5759,-0.5713,-0.5706,-0.57,0,0,0,0,0,-0.5752,-0.5723,-0.5737,-0.5736,-0.5739,-0.5733,-0.5733,-0.5755,-0.5774,-0.5762,-0.5776,-0.5798,-0.5785,-0.58,-0.58,-0.578,-0.5766,-0.5763,-0.576,-0.5716,-0.5708,-0.57,0,0,0,0,0,0,-0.5703,-0.5725,-0.5741,-0.5716,-0.5722,-0.574,-0.5725,-0.5745,-0.5746,-0.575,-0.5777,-0.578,-0.5762,-0.577,-0.5787,-0.5752,-0.5779,-0.5776,-0.5747,-0.5739,-0.5732,-0.573,-0.5824,0,0,0,0,0,-0.569,-0.5682,-0.5702,-0.5678,-0.5681,-0.5702,-0.57,-0.5717,-0.5725,-0.5727,-0.574,-0.5747,-0.5745,-0.5743,-0.5741,-0.5716,-0.572,-0.5702,-0.5696,-0.569,-0.5686,-0.5675,-0.5668,-0.5748,-0.5748,-0.5748,0,0,-0.5661,-0.5672,-0.5666,-0.5669,-0.5675,-0.5668,-0.5704,-0.5694,-0.5689,-0.5726,-0.5712,-0.5722,-0.5733,-0.5712,-0.5704,-0.5718,-0.5666,-0.5686,-0.5682,-0.5681,-0.5671,-0.5664,-0.5657,-0.5745,-0.5746,-0.5746,0,0,-0.5605,-0.5613,-0.5594,-0.5601,-0.5611,-0.5627,-0.5622,-0.5638,-0.5646,-0.5633,-0.5662,-0.5657,-0.5652,-0.5658,-0.5661,-0.5612,-0.5633,-0.5611,-0.5577,-0.5565,-0.5559,-0.5554,-0.5537,-0.553,-0.5608,-0.5607,-0.5607,0,-0.5568,-0.5557,-0.5582,-0.5571,-0.5573,-0.5607,-0.5589,-0.5595,-0.5604,-0.5605,-0.5621,-0.5617,-0.5626,-0.5609,-0.5597,-0.5598,-0.5595,-0.5608,-0.5558,-0.5553,-0.5548,-0.5532,-0.5526,-0.5605,-0.5605,-0.5605,-0.5606,0,-0.5512,-0.5505,-0.5489,-0.5498,-0.5498,-0.5483,-0.5507,-0.5505,-0.5522,-0.5536,-0.5524,-0.5537,-0.554,-0.5538,-0.5554,-0.5524,-0.5532,-0.5553,-0.5581,-0.5537,-0.5523,-0.5517,-0.5601,-0.5602,-0.5603,-0.5603,0,0,-0.5423,-0.5448,-0.5442,-0.5447,-0.5463,-0.5458,-0.5447,-0.545,-0.5447,-0.5454,-0.5446,-0.5442,-0.5462,-0.5466,-0.5484,-0.5474,-0.5436,-0.5496,-0.5497,-0.5485,-0.5404,-0.5388,-0.538,-0.5451,-0.545,-0.5449,-0.5403,0,-0.5371,-0.5351,-0.5375,-0.5351,-0.5346,-0.538,-0.5371,-0.538,-0.5394,-0.5392,-0.5408,-0.5405,-0.5431,-0.5434,-0.5426,-0.5442,-0.542,-0.5446,-0.5444,-0.5443,-0.5439,-0.5373,-0.5355,-0.5311,-0.5398,-0.5397,-0.5396,0,-0.5306,-0.531,-0.5286,-0.5305,-0.5304,-0.5294,-0.5301,-0.5298,-0.5311,-0.5322,-0.5327,-0.5349,-0.5341,-0.537,-0.536,-0.5377,-0.5379,-0.5387,-0.5386,-0.5385,-0.5416,-0.537,-0.5297,-0.5291,-0.5388,-0.5388,-0.5389,0,-0.5244,-0.5243,-0.5229,-0.5233,-0.5255,-0.5248,-0.5257,-0.5271,-0.5272,-0.5279,-0.528,-0.5285,-0.5288,-0.5292,-0.5316,-0.5334,-0.5304,-0.5334,-0.5313,-0.5312,-0.5304,-0.5303,-0.5229,-0.5306,-0.5306,-0.5306,-0.5306,0,-0.5182,-0.5166,-0.5202,-0.5193,-0.5177,-0.5206,-0.5189,-0.5202,-0.5215,-0.521,-0.5241,-0.5236,-0.5269,-0.5268,-0.5287,-0.5277,-0.5278,-0.5287,-0.5292,-0.5284,-0.5282,-0.5284,-0.5287,-0.5304,-0.5304,-0.5305,-0.5305,0,-0.5109,-0.5132,-0.5119,-0.5142,-0.5148,-0.5135,-0.5155,-0.5149,-0.5166,-0.516,-0.516,-0.5187,-0.5188,-0.5214,-0.522,-0.5233,-0.5215,-0.5226,-0.521,-0.5213,-0.5191,-0.5193,-0.5115,-0.5106,-0.5188,-0.5187,-0.5187,0,-0.5067,-0.5056,-0.5078,-0.5077,-0.5085,-0.5083,-0.5085,-0.5115,-0.5116,-0.5131,-0.5123,-0.5127,-0.5131,-0.5131,-0.5152,-0.5158,-0.5169,-0.5142,-0.517,-0.5163,-0.5169,-0.5169,-0.5168,-0.5135,-0.5134,-0.5133,-0.5132,0,-0.4991,-0.5004,-0.5005,-0.5012,-0.5013,-0.502,-0.5028,-0.5026,-0.5059,-0.5059,-0.506,-0.5064,-0.5071,-0.5075,-0.5085,-0.5096,-0.5119,-0.5124,-0.5119,-0.511,-0.5101,-0.5106,-0.5193,-0.5125,-0.5125,-0.5126,-0.5126,-0.5127,-0.4932,-0.4925,-0.494,-0.4941,-0.4951,-0.4959,-0.4955,-0.4972,-0.4974,-0.4982,-0.5,-0.4999,-0.5015,-0.5031,-0.504,-0.5041,-0.5055,-0.5048,-0.5047,-0.5044,-0.504,-0.5102,-0.5043,-0.5043,-0.5043,-0.5044,-0.5044,0,-0.4858,-0.4871,-0.4872,-0.4883,-0.4885,-0.4908,-0.4919,-0.4919,-0.4918,-0.4931,-0.4935,-0.4938,-0.4943,-0.4965,-0.4973,-0.4969,-0.498,-0.497,-0.497,-0.4972,-0.5026,-0.503,-0.4961,-0.4961,-0.4961,-0.4961,-0.4961,-0.4961,-0.482,-0.4808,-0.4823,-0.4818,-0.4831,-0.483,-0.4835,-0.4843,-0.4853,-0.4855,-0.4859,-0.4874,-0.4891,-0.4901,-0.4907,-0.4914,-0.4915,-0.49,-0.4911,-0.496,-0.4968,-0.4976,-0.4979,-0.4901,-0.4901,-0.4857,-0.4856,-0.4856]},{"header":{"parameterUnit":"m.s-1","parameterCategory":1,"la1":30.2991,"la2":30.254,"lo1":-89.0895,"lo2":-89.0444,"dy":0.0017,"dx":0.0017,"nx":28,"ny":28,"refTime":"2023-08-08T03:00:00:Z","depth":0,"parameterNumber":3,"parameterNumberName":"V-component_of_WINDS"},"data":[0,0,0,0,0,0,0,0,0,0,0,0,0,0,0,0,0,0,0,0,0,0,0,0,0,0,0,0,0,0,0,0,0,0,0,0,0,0,0,0,0,0,0,0,0,0,0,0,0,0,0,0,0,0,0,0,0,0,7.6013,7.6013,0,7.5955,7.5954,7.5953,7.5849,7.5847,7.5845,7.5843,7.5784,7.5784,7.5784,0,0,0,0,0,0,0,0,0,0,0,0,0,7.6035,7.6035,7.6013,7.6013,7.6012,7.5955,7.5954,7.5953,7.5849,7.5847,7.5844,7.5842,7.5784,7.5784,7.5785,0,0,0,0,0,0,0,0,0,0,0,0,0,7.6006,7.6035,7.6014,7.5953,7.5947,7.5955,7.5954,7.5953,7.585,7.5847,7.5844,7.5841,7.5784,7.5784,7.5785,7.5847,0,0,7.5786,7.5786,0,0,0,0,0,0,0,0,7.6008,7.6006,7.5963,7.5957,7.5951,7.5906,7.594,7.5918,7.5851,7.5887,7.5843,7.584,7.5827,7.5824,7.5819,7.5844,7.5842,7.5786,7.5786,7.5786,7.5786,0,0,0,0,0,0,0,7.601,7.6007,7.599,7.5962,7.5955,7.5929,7.5922,7.5935,7.5874,7.5883,7.5876,7.587,7.5823,7.5819,7.5817,7.5841,7.5786,7.5786,7.5787,7.5787,7.5911,7.5914,0,0,0,0,0,0,7.6021,7.601,7.5992,7.5988,7.5973,7.5931,7.5923,7.5923,7.5874,7.5864,7.5873,7.5865,7.582,7.5817,7.5815,7.5882,7.5786,7.5787,7.5787,7.5908,7.5911,7.5915,0,0,0,0,0,0,7.6022,7.602,7.5994,7.5997,7.5992,7.5934,7.5935,7.5924,7.592,7.5866,7.5855,7.588,7.5817,7.5814,7.5839,7.5878,7.5787,7.5787,7.5904,7.5909,7.5913,7.6018,0,0,0,0,0,0,7.6023,7.6021,7.6044,7.5998,7.5992,7.602,7.5938,7.5925,7.5921,7.591,7.5869,7.586,7.5815,7.5839,7.5839,7.5877,7.5788,7.59,7.5906,7.5912,7.6011,7.6026,7.6039,0,0,0,0,0,7.6024,7.6077,7.6046,7.6045,7.602,7.6023,7.6019,7.5966,7.5924,7.5947,7.5912,7.5861,7.5875,7.5842,7.5842,7.5881,7.5898,7.5905,7.5911,7.6005,7.6023,7.6038,0,0,0,0,0,0,7.613,7.607,7.6035,7.6075,7.6054,7.6005,7.6031,7.5987,7.5978,7.5969,7.5904,7.5896,7.5929,7.5907,7.5873,7.5937,7.5878,7.5885,7.5949,7.5966,7.598,7.5983,7.5788,0,0,0,0,0,7.6158,7.6165,7.6113,7.6153,7.6144,7.609,7.6089,7.605,7.6027,7.6018,7.5985,7.5964,7.5963,7.5964,7.596,7.6008,7.5996,7.6035,7.6048,7.606,7.6066,7.6087,7.6102,7.5937,7.5937,7.5937,0,0,7.6216,7.6184,7.6192,7.6173,7.6153,7.6161,7.6083,7.6096,7.6101,7.602,7.604,7.6016,7.5988,7.6024,7.6038,7.6007,7.6109,7.6069,7.6078,7.6078,7.6096,7.6111,7.6125,7.5942,7.5941,7.594,0,0,7.6324,7.6302,7.6332,7.6313,7.6283,7.6246,7.6254,7.6211,7.6191,7.621,7.6148,7.6154,7.6155,7.6137,7.6128,7.6229,7.6181,7.623,7.6301,7.6323,7.6336,7.6347,7.638,7.6393,7.6237,7.6237,7.6238,0,7.64,7.6409,7.6353,7.6368,7.6361,7.6287,7.6316,7.6301,7.6272,7.6268,7.6234,7.6232,7.6208,7.6237,7.6262,7.6258,7.6263,7.6233,7.6339,7.6349,7.6359,7.639,7.6403,7.6243,7.6243,7.6242,7.6242,0,7.6502,7.651,7.6538,7.651,7.6507,7.6529,7.6475,7.6478,7.644,7.6407,7.6427,7.6396,7.6384,7.6388,7.6352,7.6412,7.6393,7.635,7.6289,7.6381,7.6409,7.6421,7.6252,7.625,7.6248,7.6246,0,0,7.6674,7.6615,7.6626,7.6611,7.6573,7.6578,7.6597,7.6584,7.6587,7.657,7.6583,7.6585,7.6544,7.6534,7.6494,7.6513,7.6592,7.6467,7.6465,7.6488,7.6653,7.6684,7.6699,7.6561,7.6563,7.6565,7.6655,0,7.6773,7.6801,7.675,7.679,7.6795,7.6726,7.6742,7.672,7.669,7.669,7.6657,7.6658,7.6605,7.6598,7.6614,7.6579,7.6624,7.6572,7.657,7.6571,7.6576,7.6714,7.6747,7.6833,7.6666,7.6667,7.6669,0,7.6891,7.6878,7.6918,7.6875,7.6876,7.6891,7.6875,7.6877,7.685,7.6826,7.6815,7.6768,7.6782,7.6726,7.6744,7.671,7.6706,7.6689,7.6691,7.6686,7.6623,7.671,7.686,7.6871,7.6686,7.6685,7.6683,0,7.7008,7.7002,7.7024,7.7015,7.6966,7.6978,7.6959,7.6929,7.6924,7.691,7.6906,7.6895,7.6888,7.6879,7.683,7.6794,7.6853,7.6793,7.6832,7.6833,7.6846,7.6845,7.6994,7.6849,7.6849,7.6849,7.6848,0,7.7121,7.7148,7.7076,7.709,7.7117,7.7059,7.7088,7.7061,7.7035,7.7042,7.6982,7.6989,7.6925,7.6925,7.6887,7.6906,7.6905,7.6885,7.6874,7.6888,7.689,7.6883,7.6875,7.6852,7.6851,7.6851,7.685,0,7.7257,7.721,7.7229,7.7182,7.717,7.7193,7.7151,7.7162,7.7128,7.7137,7.7136,7.7083,7.7079,7.703,7.7017,7.6991,7.7024,7.7004,7.7033,7.7025,7.7066,7.7062,7.7213,7.7228,7.7077,7.7079,7.708,0,7.733,7.7349,7.7303,7.7303,7.7286,7.7288,7.7282,7.7226,7.7222,7.7192,7.7206,7.7198,7.7188,7.7186,7.7146,7.7135,7.7111,7.7165,7.7109,7.7123,7.7108,7.7107,7.7107,7.7176,7.7178,7.718,7.7181,0,7.7465,7.7441,7.7435,7.7422,7.7417,7.7403,7.7386,7.7389,7.7327,7.7326,7.7322,7.7315,7.73,7.7292,7.7274,7.7252,7.7206,7.7199,7.7207,7.7221,7.7236,7.7225,7.7062,7.7195,7.7194,7.7193,7.7192,7.7192,7.757,7.7582,7.7552,7.7547,7.7528,7.7513,7.7519,7.7486,7.7482,7.7465,7.7433,7.7433,7.7404,7.7374,7.7357,7.7356,7.7328,7.734,7.7343,7.7346,7.7353,7.7239,7.7353,7.7352,7.7352,7.7351,7.7351,0,7.7699,7.7676,7.7672,7.7649,7.7646,7.7603,7.7581,7.758,7.7581,7.7559,7.755,7.7544,7.7536,7.7495,7.7482,7.7488,7.7466,7.7486,7.7484,7.7479,7.738,7.7373,7.7504,7.7504,7.7504,7.7504,7.7504,7.7504,7.7766,7.7784,7.7756,7.7763,7.774,7.7739,7.773,7.7715,7.7697,7.7693,7.7685,7.7659,7.7628,7.7612,7.7602,7.759,7.7586,7.7613,7.7594,7.7501,7.7487,7.7472,7.7465,7.7614,7.7614,7.7692,7.7693,7.7694]}]]